World > North America > United States > Pennsylvania > Portersville  

Portersville, PA Hourly Weather Updates

Feedback E-mail the Weather

Quick Clicks

Portersville, PA Weather Maps

°F °C°F °C
Portersville Weather Map
UTC Time: 6/16/2024, 21:49
Your Time:

Portersville, PA Regional Weather

Expires:202406162200;;136860
ASUS41 KCTP 162110
RWRCTP

REGIONAL WEATHER ROUNDUP
NATIONAL WEATHER SERVICE STATE COLLEGE PA
500 PM EDT SUN JUN 16 2024

Note: "fair" indicates few or no clouds below 12,000 feet with no 
significant weather and/or obstructions to visibility.

* = STATION THAT DOES NOT REPORT PRECIPITATION /E.G. RAIN...SNOW...ETC/
    THUNDER OR FOG.


PAZ002>004-007>009-013>016-020>023-029>032-162200-
WESTERN PENNSYLVANIA
  
CITY           SKY/WX    TMP DP  RH WIND       PRES   REMARKS
ERIE           SUNNY     78  58  49 NE12      30.05F                  
MEADVILLE      SUNNY     84  51  31 S7G17     30.07F                  
FRANKLIN       SUNNY     82  55  39 SW9       30.10F                  
NEW CASTLE     SUNNY     87  59  38 S8        30.06F                  
BEAVER COUNTY  MOSUNNY   89  57  33 S6        30.07F                  
BUTLER         MOSUNNY   87  60  40 S13       30.08F                  
PITTSBURGH INT MOSUNNY   87  60  40 S8        30.06F                  
PITTSBURGH     MOSUNNY   86  60  41 S12       30.07F                  
INDIANA*       MOSUNNY   86  61  42 SE9       30.14S                  
LATROBE        MOSUNNY   88  63  42 S12G17    30.08F                  
CONNELLSVILLE  MOSUNNY   85  64  48 S10       30.09F                  
WASHINGTON CO* MOSUNNY   86  63  45 S9        30.09F                  
$$


SKY/WX - Weather  TMP - Temperature  DP - Dew Point  RH - Humidity
WIND - Wind Direction/Speed PRES - Barometric Pressure VSB - Visibility
WCI - Wind Chill Index E13G22 Wind - East Wind 13 mph/Gusts of 22 mph

Trending Headlines

Trending Entertainment Headlines

Portersville Radar Loop

Use the map search tool if you want to place a location marker on the radar map...

Portersville Quick Facts

National Two Day Weather Forecast


E-mail the Portersville Weather Forecast

Voice your opinion or tell us about page issues...